Location: Unspecified
(0.0000°N, 0.0000°E)
Time: 17:20:10
(UTC+00:00)

Hubble Space Telescope - Pass Details

Date: 07 October 2018
Orbit: 535 x 539 km, 28.5° (Epoch: 07 May)

Event Time Altitude Azimuth Distance (km) Brightness Sun altitude
Exits shadow 04:38:27 21° 221° (SW) 1,246 2.3 -17.3°
Maximum altitude 04:41:02 55° 150° (SSE) 648 1.3 -16.6°
Drops below altitude 10° 04:45:05 10° 72° (ENE) 1,783 4.5 -15.6°
Sets 04:47:23 0° 67° (ENE) 2,674 5.5 -15.1°
